Weather History for KVYS - February, 2012

Change the Weather History Date:

Thursday, February 16, 2012

  Actual Average Record
Temperature  
Mean Temperature 41 °F -  
Max Temperature 47 °F 34 °F 65 °F (1976)
Min Temperature 35 °F 16 °F -5 °F (2007)
Degree Days  
Heating Degree Days 24    
Moisture  
Dew Point 35 °F    
Average Humidity 82    
Maximum Humidity 97    
Minimum Humidity 51    
Precipitation  
Precipitation 0.12 in - - ()
Sea Level Pressure  
Sea Level Pressure 30.06 in    
Wind  
Wind Speed 9 mph (WNW)    
Max Wind Speed 20 mph    
Max Gust Speed 25 mph    
Visibility 4 miles    
Events Fog , Rain    
Averages and records for this station are not official NWS values.
T = Trace of Precipitation, MM = Missing Value Source: NWS Daily Summary

Daily Weather History Graph

Daily Weather History Graph

Search for Another Location

Airport or City:

Trip Planner

Search our weather history database for the weather conditions in past years. The results will help you decide how hot, cold, wet, or windy it might be!

Date:

Astronomy

Feb. 16, 2012 Rise Set
Actual Time 6:50 AM CST 5:31 PM CST
Civil Twilight 6:22 AM CST 5:59 PM CST
Nautical Twilight 5:50 AM CST 6:31 PM CST
Astronomical Twilight 5:18 AM CST 7:03 PM CST
Moon 2:48 AM CST (2/16) 12:20 PM CST (2/16)
Length of Visible Light 11h 36m
Length of Day
10h 40m
Waning Crescent, 28% of the Moon is Illuminated
Feb 16
Waning Crescent
Feb 21
New
Feb 29
First Quarter
Mar 8
Full
Mar 14
Last Quarter

Hourly Weather History & Observations

Time (CST) Temp. Windchill Dew Point Humidity Pressure Visibility Wind Dir Wind Speed Gust Speed Precip Events Conditions
12:15 AM 39.4 °F 36.1 °F 38.3 °F 96% 29.97 in 0.5 mi WSW 4.6 mph - 0.03 in Rain Rain
12:35 AM 39.7 °F 35.6 °F 38.7 °F 96% 29.97 in 1.0 mi West 5.8 mph - 0.07 in Rain Rain
12:55 AM 39.7 °F 37.6 °F 38.7 °F 96% 29.97 in 1.2 mi West 3.5 mph - 0.09 in Rain Light Rain
1:15 AM 39.7 °F 36.5 °F 38.7 °F 96% 29.97 in 1.0 mi WNW 4.6 mph - 0.02 in Rain Rain
1:35 AM 40.1 °F 36.1 °F 39.0 °F 96% 29.97 in 1.5 mi WNW 5.8 mph - 0.02 in   Light Drizzle
1:55 AM 40.3 °F 34.9 °F 39.2 °F 96% 29.96 in 1.8 mi WNW 8.1 mph - 0.02 in   Overcast
2:15 AM 40.1 °F 34.7 °F 39.2 °F 97% 29.96 in 1.2 mi WNW 8.1 mph - N/A   Overcast
2:35 AM 40.1 °F 34.7 °F 39.2 °F 97% 29.96 in 1.5 mi WNW 8.1 mph - 0.01 in   Overcast
2:55 AM 39.7 °F 32.7 °F 38.7 °F 96% 29.96 in 0.5 mi NW 11.5 mph - 0.01 in Fog Fog
3:15 AM 39.4 °F 31.8 °F 38.3 °F 96% 29.96 in 0.2 mi NW 12.7 mph - N/A Fog Fog
3:35 AM 39.2 °F 32.5 °F 37.9 °F 95% 29.97 in 0.5 mi NNW 10.4 mph - N/A Fog Fog
3:55 AM 38.7 °F 31.8 °F 37.6 °F 96% 29.98 in 1.2 mi NW 10.4 mph - N/A   Overcast
4:15 AM 37.6 °F 30.5 °F 36.3 °F 95% 29.98 in 2.0 mi NW 10.4 mph - N/A   Mostly Cloudy
4:35 AM 36.5 °F 28.2 °F 35.6 °F 97% 29.99 in 1.5 mi NW 12.7 mph - N/A   Scattered Clouds
4:55 AM 36.5 °F 27.8 °F 35.6 °F 97% 29.99 in 0.2 mi NW 13.8 mph - N/A Fog Fog
5:15 AM 36.5 °F 29.7 °F 35.6 °F 97% 29.99 in 0.5 mi WNW 9.2 mph - N/A Fog Fog
5:35 AM 36.5 °F 29.7 °F 35.6 °F 97% 30.00 in 0.5 mi WNW 9.2 mph - N/A Fog Fog
5:55 AM 36.5 °F 29.7 °F 35.6 °F 97% 30.00 in 0.5 mi WNW 9.2 mph - N/A Fog Fog
6:15 AM 36.5 °F 29.7 °F 35.6 °F 97% 30.01 in 0.2 mi WNW 9.2 mph - N/A Fog Fog
6:35 AM 35.8 °F 28.3 °F 34.9 °F 97% 30.01 in 0.5 mi WNW 10.4 mph - N/A Fog Fog
6:55 AM 35.2 °F 29.5 °F 34.3 °F 97% 30.02 in 0.2 mi WNW 6.9 mph - N/A Fog Fog
7:15 AM 35.2 °F 28.1 °F 34.3 °F 97% 30.04 in 0.2 mi WNW 9.2 mph - N/A Fog Fog
7:35 AM 35.2 °F 28.8 °F 34.3 °F 97% 30.05 in 0.2 mi West 8.1 mph - N/A Fog Fog
7:55 AM 36.3 °F 30.1 °F 35.4 °F 97% 30.06 in 0.2 mi West 8.1 mph - N/A Fog Fog
8:15 AM 36.5 °F 29.7 °F 35.6 °F 97% 30.08 in 0.2 mi West 9.2 mph - N/A Fog Fog
8:35 AM 36.5 °F 28.7 °F 35.6 °F 97% 30.09 in 0.2 mi West 11.5 mph 17.3 mph N/A Fog Fog
8:55 AM 36.9 °F 30.1 °F 36.0 °F 97% 30.10 in 0.5 mi WNW 9.2 mph - N/A Fog Fog
9:15 AM 37.8 °F 31.8 °F 36.9 °F 97% 30.10 in 1.0 mi West 8.1 mph - N/A   Overcast
9:35 AM 38.5 °F 31.6 °F 37.6 °F 97% 30.10 in 1.8 mi WNW 10.4 mph - N/A   Overcast
9:55 AM 41.0 °F 34.3 °F 39.2 °F 93% 30.10 in 2.5 mi WNW 11.5 mph - N/A   Overcast
10:15 AM 41.7 °F 34.4 °F 40.5 °F 95% 30.10 in 4.0 mi WNW 13.8 mph - N/A   Mostly Cloudy
10:35 AM 43.2 °F 36.6 °F 40.3 °F 90% 30.11 in 5.0 mi WNW 12.7 mph - N/A   Mostly Cloudy
10:55 AM 44.6 °F 37.4 °F 38.1 °F 78% 30.11 in 5.0 mi WNW 16.1 mph - N/A   Haze
11:15 AM 45.5 °F 38.9 °F 38.8 °F 78% 30.11 in 7.0 mi WNW 15.0 mph - N/A   Mostly Cloudy
11:35 AM 46.0 °F 39.9 °F 38.7 °F 75% 30.11 in 7.0 mi WNW 13.8 mph - N/A   Overcast
11:55 AM 45.7 °F 39.5 °F 37.4 °F 73% 30.11 in 7.0 mi WNW 13.8 mph 18.4 mph N/A   Overcast
12:15 PM 46.6 °F - 36.9 °F 69% 30.11 in 10.0 mi WNW 17.3 mph - N/A   Mostly Cloudy
12:35 PM 46.4 °F 40.1 °F 36.3 °F 68% 30.11 in 10.0 mi WNW 15.0 mph - N/A   Scattered Clouds
1:15 PM 46.8 °F - 34.2 °F 62% 30.11 in 10.0 mi WNW 16.1 mph 20.7 mph N/A   Scattered Clouds
1:35 PM 47.1 °F - 33.6 °F 59% 30.11 in 10.0 mi WNW 15.0 mph - N/A   Scattered Clouds
1:55 PM 47.1 °F - 32.0 °F 56% 30.11 in 10.0 mi NW 19.6 mph 24.2 mph N/A   Scattered Clouds
2:15 PM 47.3 °F - 32.0 °F 55% 30.11 in 10.0 mi NW 17.3 mph - N/A   Clear
2:35 PM 47.3 °F - 31.5 °F 54% 30.11 in 10.0 mi NW 17.3 mph 25.3 mph N/A   Clear
2:55 PM 47.3 °F - 31.6 °F 55% 30.11 in 10.0 mi WNW 13.8 mph - N/A   Clear
3:15 PM 47.3 °F - 30.7 °F 53% 30.12 in 10.0 mi WNW 16.1 mph - N/A   Clear
3:35 PM 46.8 °F - 29.8 °F 52% 30.12 in 10.0 mi West 13.8 mph 20.7 mph N/A   Clear
3:55 PM 46.8 °F - 30.2 °F 53% 30.12 in 10.0 mi WNW 9.2 mph - N/A   Clear
4:15 PM 46.4 °F 41.5 °F 29.3 °F 51% 30.12 in 10.0 mi West 10.4 mph - N/A   Clear
4:35 PM 45.7 °F 40.6 °F 28.8 °F 52% 30.12 in 10.0 mi West 10.4 mph - N/A   Clear
4:55 PM 44.8 °F 39.4 °F 29.8 °F 56% 30.13 in 10.0 mi West 10.4 mph - N/A   Clear
5:15 PM 43.0 °F 37.7 °F 29.8 °F 60% 30.13 in 10.0 mi West 9.2 mph - N/A   Clear
5:35 PM 40.5 °F 35.1 °F 29.5 °F 65% 30.13 in 10.0 mi WSW 8.1 mph - N/A   Clear
5:55 PM 39.2 °F 34.2 °F 28.4 °F 65% 30.12 in 10.0 mi WSW 6.9 mph - N/A   Clear
6:15 PM 40.1 °F 35.3 °F 27.5 °F 61% 30.13 in 10.0 mi WSW 6.9 mph - N/A   Clear
6:35 PM 40.1 °F 34.7 °F 28.2 °F 63% 30.13 in 10.0 mi WSW 8.1 mph - N/A   Clear
6:55 PM 39.6 °F 33.5 °F 29.3 °F 67% 30.13 in 10.0 mi WSW 9.2 mph - N/A   Clear
7:15 PM 39.2 °F 33.0 °F 29.3 °F 68% 30.13 in 10.0 mi WSW 9.2 mph - N/A   Clear
7:35 PM 38.8 °F 32.1 °F 29.5 °F 69% 30.13 in 10.0 mi WSW 10.4 mph - N/A   Clear
7:55 PM 37.8 °F 31.3 °F 29.3 °F 72% 30.13 in 10.0 mi WSW 9.2 mph - N/A   Clear
8:15 PM 38.3 °F 31.4 °F 29.3 °F 70% 30.13 in 10.0 mi WSW 10.4 mph - N/A   Clear
8:35 PM 37.9 °F 31.5 °F 28.9 °F 70% 30.14 in 10.0 mi West 9.2 mph - N/A   Clear
8:55 PM 37.2 °F 30.0 °F 28.9 °F 72% 30.15 in 10.0 mi West 10.4 mph - N/A   Clear
9:15 PM 37.6 °F 29.6 °F 28.9 °F 71% 30.15 in 10.0 mi West 12.7 mph - N/A   Clear
9:35 PM 37.9 °F 30.5 °F 28.9 °F 70% 30.15 in 10.0 mi West 11.5 mph - N/A   Clear
9:55 PM 37.4 °F 29.8 °F 28.9 °F 71% 30.15 in 10.0 mi West 11.5 mph - N/A   Clear
10:15 PM 36.5 °F 29.7 °F 28.9 °F 74% 30.15 in 10.0 mi West 9.2 mph - N/A   Clear
10:35 PM 36.5 °F 29.7 °F 29.3 °F 75% 30.14 in 10.0 mi West 9.2 mph - N/A   Clear
10:55 PM 35.6 °F 29.2 °F 29.1 °F 77% 30.14 in 10.0 mi West 8.1 mph - N/A   Clear
11:15 PM 35.2 °F 29.5 °F 29.1 °F 78% 30.14 in 10.0 mi West 6.9 mph - N/A   Clear
11:35 PM 34.9 °F 28.3 °F 28.9 °F 79% 30.14 in 10.0 mi WNW 8.1 mph - N/A   Clear
11:55 PM 34.3 °F 28.4 °F 28.4 °F 79% 30.15 in 10.0 mi WNW 6.9 mph - N/A   Clear